When you browse on this site, cookies collect data to enhance your experience and personalize the content and advertising you see.
Visit our Privacy Policy to learn more. By continuing to use the site, you agree to this use of cookies and data.
  • In Slovakia
  • List of Countries
  • For 7 days
  • Water Temperature
  • Weather Map
  • Weather Widgets
  • user-avatar
    Login

    Hourly Weather Algiers

    Today, 19 November, Tuesday

    Time Temperature Precipitation Wind Pressure Humidity
    00:00 +11°C° 0 mm 4 mps 748 mmHg 75%
    01:00 +11°C° 1 mm 4 mps 748 mmHg 77%
    02:00 +11°C° 1 mm 3 mps 748 mmHg 78%
    03:00 +10°C° 1 mm 3 mps 748 mmHg 80%
    04:00 +10°C° 0.6 mm 2 mps 748 mmHg 78%
    05:00 +10°C° 0.6 mm 2 mps 749 mmHg 77%
    06:00 +10°C° 0 mm 2 mps 749 mmHg 77%
    07:00 +12°C° 0.1 mm 2 mps 749 mmHg 73%
    08:00 +13°C° 0.1 mm 2 mps 750 mmHg 69%
    09:00 +13°C° 0.1 mm 3 mps 750 mmHg 65%
    10:00 +13°C° 0.1 mm 3 mps 750 mmHg 61%
    11:00 +14°C° 0.1 mm 4 mps 749 mmHg 58%
    12:00 +15°C° 0.1 mm 5 mps 749 mmHg 54%
    13:00 +15°C° 0 mm 5 mps 749 mmHg 54%
    14:00 +14°C° 0 mm 6 mps 749 mmHg 53%
    15:00 +14°C° 0 mm 6 mps 749 mmHg 52%
    16:00 +14°C° 0 mm 5 mps 749 mmHg 55%
    17:00 +13°C° 0 mm 5 mps 749 mmHg 58%
    18:00 +12°C° 0 mm 4 mps 749 mmHg 60%
    19:00 +12°C° 0 mm 4 mps 749 mmHg 60%
    20:00 +12°C° 0 mm 3 mps 749 mmHg 60%
    21:00 +11°C° 0 mm 3 mps 750 mmHg 60%
    22:00 +11°C° 0 mm 3 mps 749 mmHg 60%
    23:00 +12°C° 0 mm 2 mps 749 mmHg 61%

    Tomorrow, 20 November, Wednesday

    Time Temperature Precipitation Wind Pressure Humidity
    00:00 +12°C° 0 mm 2 mps 749 mmHg 61%
    01:00 +12°C° 0 mm 2 mps 749 mmHg 60%
    02:00 +12°C° 0 mm 2 mps 748 mmHg 59%
    03:00 +12°C° 0 mm 2 mps 748 mmHg 59%
    04:00 +11°C° 0 mm 3 mps 748 mmHg 57%
    05:00 +10°C° 0 mm 3 mps 748 mmHg 56%
    06:00 +10°C° 0 mm 3 mps 748 mmHg 55%
    07:00 +11°C° 0 mm 3 mps 748 mmHg 52%
    08:00 +12°C° 0 mm 3 mps 748 mmHg 50%
    09:00 +13°C° 0 mm 3 mps 748 mmHg 47%
    10:00 +16°C° 0 mm 3 mps 747 mmHg 44%
    11:00 +17°C° 0 mm 2 mps 747 mmHg 41%
    12:00 +18°C° 0 mm 2 mps 747 mmHg 38%
    13:00 +18°C° 0 mm 2 mps 746 mmHg 40%
    14:00 +18°C° 0 mm 2 mps 746 mmHg 41%
    15:00 +18°C° 0 mm 2 mps 746 mmHg 42%
    16:00 +17°C° 0 mm 2 mps 746 mmHg 46%
    17:00 +16°C° 0 mm 2 mps 746 mmHg 50%
    18:00 +15°C° 0 mm 2 mps 746 mmHg 54%
    19:00 +15°C° 0 mm 2 mps 746 mmHg 55%
    20:00 +15°C° 0 mm 2 mps 746 mmHg 56%
    21:00 +15°C° 0 mm 1 mps 746 mmHg 56%
    22:00 +14°C° 0 mm 2 mps 746 mmHg 57%
    23:00 +14°C° 0 mm 2 mps 746 mmHg 57%

    Day after tomorrow, 21 November, Thursday

    Time Temperature Precipitation Wind Pressure Humidity
    00:00 +14°C° 0 mm 2 mps 746 mmHg 58%
    01:00 +14°C° 0 mm 2 mps 746 mmHg 57%
    02:00 +14°C° 0 mm 2 mps 746 mmHg 56%
    03:00 +14°C° 0 mm 2 mps 746 mmHg 56%
    04:00 +13°C° 0 mm 3 mps 746 mmHg 55%
    05:00 +13°C° 0 mm 3 mps 746 mmHg 54%
    06:00 +13°C° 0 mm 3 mps 746 mmHg 54%
    07:00 +14°C° 0 mm 3 mps 746 mmHg 53%
    08:00 +16°C° 0 mm 3 mps 747 mmHg 53%
    09:00 +17°C° 0 mm 3 mps 747 mmHg 52%
    10:00 +17°C° 0 mm 3 mps 747 mmHg 51%
    11:00 +18°C° 0 mm 3 mps 746 mmHg 50%
    12:00 +19°C° 0 mm 4 mps 746 mmHg 49%
    13:00 +18°C° 0 mm 4 mps 746 mmHg 52%
    14:00 +17°C° 0 mm 5 mps 746 mmHg 55%
    15:00 +17°C° 0 mm 5 mps 746 mmHg 58%
    16:00 +17°C° 0.1 mm 4 mps 746 mmHg 62%
    17:00 +15°C° 0.1 mm 4 mps 746 mmHg 67%
    18:00 +16°C° 0.1 mm 3 mps 746 mmHg 71%
    19:00 +16°C° 0.1 mm 3 mps 747 mmHg 70%
    20:00 +16°C° 0.1 mm 2 mps 747 mmHg 69%
    21:00 +15°C° 0.1 mm 2 mps 747 mmHg 68%
    22:00 +15°C° 0.1 mm 2 mps 747 mmHg 67%
    23:00 +15°C° 0.1 mm 2 mps 747 mmHg 65%

    22 November, Friday

    Time Temperature Precipitation Wind Pressure Humidity
    00:00 +15°C° 0.1 mm 1 mps 747 mmHg 64%
    01:00 +15°C° 0 mm 1 mps 746 mmHg 63%
    02:00 +15°C° 0 mm 2 mps 746 mmHg 62%
    03:00 +15°C° 0 mm 2 mps 746 mmHg 61%
    04:00 +15°C° 0 mm 2 mps 746 mmHg 60%
    05:00 +14°C° 0 mm 3 mps 746 mmHg 59%
    06:00 +14°C° 0 mm 3 mps 746 mmHg 59%
    07:00 +16°C° 0 mm 3 mps 746 mmHg 57%
    08:00 +17°C° 0 mm 3 mps 746 mmHg 55%
    09:00 +17°C° 0 mm 3 mps 746 mmHg 53%
    10:00 +19°C° 0 mm 4 mps 746 mmHg 50%
    11:00 +20°C° 0 mm 4 mps 745 mmHg 46%
    12:00 +21°C° 0 mm 5 mps 745 mmHg 43%
    13:00 +21°C° 0 mm 4 mps 744 mmHg 45%
    14:00 +20°C° 0 mm 3 mps 743 mmHg 47%
    15:00 +20°C° 0 mm 2 mps 743 mmHg 49%
    16:00 +20°C° 0 mm 3 mps 743 mmHg 51%
    17:00 +19°C° 0 mm 3 mps 743 mmHg 52%
    18:00 +19°C° 0 mm 3 mps 743 mmHg 53%
    19:00 +19°C° 0 mm 4 mps 742 mmHg 54%
    20:00 +19°C° 0 mm 5 mps 742 mmHg 54%
    21:00 +19°C° 0 mm 5 mps 742 mmHg 55%
    22:00 +17°C° 0.8 mm 5 mps 742 mmHg 62%
    23:00 +16°C° 0.8 mm 6 mps 742 mmHg 69%

    23 November, Saturday

    Time Temperature Precipitation Wind Pressure Humidity
    00:00 +15°C° 0.8 mm 6 mps 741 mmHg 76%
    01:00 +15°C° 0.3 mm 6 mps 741 mmHg 75%
    02:00 +16°C° 0.3 mm 5 mps 741 mmHg 74%
    03:00 +16°C° 0.3 mm 5 mps 740 mmHg 73%
    04:00 +16°C° 0.3 mm 5 mps 740 mmHg 74%
    05:00 +16°C° 0.3 mm 5 mps 740 mmHg 75%
    06:00 +16°C° 0.3 mm 5 mps 740 mmHg 75%
    07:00 +16°C° 0.5 mm 7 mps 740 mmHg 72%
    08:00 +17°C° 0.5 mm 8 mps 741 mmHg 68%
    09:00 +17°C° 0.5 mm 9 mps 741 mmHg 65%
    10:00 +17°C° 0.5 mm 9 mps 741 mmHg 64%
    11:00 +16°C° 0.5 mm 9 mps 741 mmHg 64%
    12:00 +16°C° 0.5 mm 8 mps 741 mmHg 63%
    13:00 +15°C° 0.8 mm 9 mps 741 mmHg 65%
    14:00 +14°C° 0.8 mm 10 mps 741 mmHg 67%
    15:00 +13°C° 0.8 mm 10 mps 741 mmHg 69%
    16:00 +13°C° 0.6 mm 10 mps 741 mmHg 67%
    17:00 +12°C° 0.6 mm 10 mps 742 mmHg 65%
    18:00 +12°C° 0.6 mm 10 mps 743 mmHg 63%
    19:00 +12°C° 0.3 mm 9 mps 744 mmHg 63%
    20:00 +12°C° 0.3 mm 8 mps 744 mmHg 63%
    21:00 +12°C° 0.3 mm 8 mps 745 mmHg 62%
    22:00 +12°C° 0.1 mm 7 mps 745 mmHg 64%
    23:00 +12°C° 0.1 mm 7 mps 746 mmHg 65%

    24 November, Sunday

    Time Temperature Precipitation Wind Pressure Humidity
    00:00 +12°C° 0.1 mm 7 mps 746 mmHg 66%
    01:00 +13°C° 0.2 mm 6 mps 746 mmHg 67%
    02:00 +13°C° 0.2 mm 6 mps 746 mmHg 67%
    03:00 +12°C° 0.2 mm 5 mps 746 mmHg 68%
    04:00 +11°C° 0.1 mm 6 mps 747 mmHg 69%
    05:00 +11°C° 0.1 mm 6 mps 747 mmHg 69%
    06:00 +11°C° 0.1 mm 6 mps 748 mmHg 70%
    07:00 +12°C° 0.2 mm 7 mps 748 mmHg 68%
    08:00 +12°C° 0.2 mm 7 mps 749 mmHg 65%
    09:00 +14°C° 0.2 mm 7 mps 749 mmHg 62%
    10:00 +14°C° 0.1 mm 7 mps 749 mmHg 61%
    11:00 +15°C° 0.1 mm 7 mps 750 mmHg 59%
    12:00 +15°C° 0.1 mm 7 mps 750 mmHg 57%
    13:00 +15°C° 0 mm 6 mps 750 mmHg 58%
    14:00 +15°C° 0 mm 6 mps 750 mmHg 58%
    15:00 +15°C° 0 mm 5 mps 750 mmHg 59%
    16:00 +14°C° 0 mm 5 mps 750 mmHg 63%
    17:00 +13°C° 0 mm 4 mps 751 mmHg 67%
    18:00 +13°C° 0 mm 4 mps 751 mmHg 70%
    19:00 +13°C° 0 mm 4 mps 752 mmHg 70%
    20:00 +13°C° 0 mm 4 mps 752 mmHg 70%
    21:00 +12°C° 0 mm 3 mps 752 mmHg 70%
    22:00 +12°C° 0 mm 4 mps 752 mmHg 70%
    23:00 +12°C° 0 mm 4 mps 752 mmHg 69%
    Show more